******** Week 353 almanac for PRN-1 ******** ID: 1 Health: 0 Eccentricity: 0.001376152039 Time of Applicability(s): 503808 Orbital Inclination(rad): 0.9583868546 Rate of Right Ascen(r/s): -8.080336578e-09 SQRT(A) (m 1/2): 5153.583008 Right Ascen at Week(rad): -2.271397486 Argument of Perigee(rad): -0.01338637922 Mean Anom(rad): 0.6900232078 Af0(s): 0.0002713227539 Af1(s/s): -3.637979e-12 week: 353 ******** Week 353 almanac for PRN-2 ******** ID: 2 Health: 0 Eccentricity: 0.0169801712 Time of Applicability(s): 503808 Orbital Inclination(rad): 0.9639235665 Rate of Right Ascen(r/s): -7.874613723e-09 SQRT(A) (m 1/2): 5153.56543 Right Ascen at Week(rad): -2.434144384 Argument of Perigee(rad): -0.8486377951 Mean Anom(rad): 2.082171818 Af0(s): 1.431981201e-05 Af1(s/s): 7.275958e-12 week: 353 ******** Week 353 almanac for PRN-3 ******** ID: 3 Health: 0 Eccentricity: 0.006349563599 Time of Applicability(s): 503808 Orbital Inclination(rad): 0.9925359035 Rate of Right Ascen(r/s): -7.851755628e-09 SQRT(A) (m 1/2): 5153.606445 Right Ascen at Week(rad): -1.28532048 Argument of Perigee(rad): 1.211037011 Mean Anom(rad): -1.544792432 Af0(s): 0.0004718001221 Af1(s/s): -1.091394e-11 week: 353 ******** Week 353 almanac for PRN-4 ******** ID: 4 Health: 0 Eccentricity: 0.003732681274 Time of Applicability(s): 503808 Orbital Inclination(rad): 0.9705748114 Rate of Right Ascen(r/s): -7.520313251e-09 SQRT(A) (m 1/2): 5153.710449 Right Ascen at Week(rad): -0.2140843213 Argument of Perigee(rad): -2.910991076 Mean Anom(rad): 1.511416366 Af0(s): 3.014697266e-05 Af1(s/s): 3.637979e-12 week: 353 ******** Week 353 almanac for PRN-5 ******** ID: 5 Health: 0 Eccentricity: 0.005375385284 Time of Applicability(s): 503808 Orbital Inclination(rad): 0.9791075795 Rate of Right Ascen(r/s): -8.011762293e-09 SQRT(A) (m 1/2): 5153.631836 Right Ascen at Week(rad): -1.344506822 Argument of Perigee(rad): 1.426225754 Mean Anom(rad): 2.117783691 Af0(s): -0.0001793744873 Af1(s/s): 0 week: 353 ******** Week 353 almanac for PRN-6 ******** ID: 6 Health: 0 Eccentricity: 0.003859519958 Time of Applicability(s): 503808 Orbital Inclination(rad): 0.9873527262 Rate of Right Ascen(r/s): -7.771752296e-09 SQRT(A) (m 1/2): 5153.564941 Right Ascen at Week(rad): -2.322142814 Argument of Perigee(rad): -0.6236021393 Mean Anom(rad): -0.1634539671 Af0(s): -0.000476322168 Af1(s/s): -3.637979e-12 week: 353 ******** Week 353 almanac for PRN-7 ******** ID: 7 Health: 0 Eccentricity: 0.02018260956 Time of Applicability(s): 503808 Orbital Inclination(rad): 0.9508248087 Rate of Right Ascen(r/s): -7.794610391e-09 SQRT(A) (m 1/2): 5153.581055 Right Ascen at Week(rad): 0.7944743416 Argument of Perigee(rad): -2.004988916 Mean Anom(rad): -1.072896723 Af0(s): -0.0001077754272 Af1(s/s): -3.637979e-12 week: 353 ******** Week 353 almanac for PRN-8 ******** ID: 8 Health: 0 Eccentricity: 0.01141834259 Time of Applicability(s): 503808 Orbital Inclination(rad): 0.9444551932 Rate of Right Ascen(r/s): -7.737465153e-09 SQRT(A) (m 1/2): 5153.620117 Right Ascen at Week(rad): 2.843055875 Argument of Perigee(rad): 0.5008391098 Mean Anom(rad): 1.778816631 Af0(s): 0.0003979400391 Af1(s/s): -3.637979e-12 week: 353 ******** Week 353 almanac for PRN-9 ******** ID: 9 Health: 0 Eccentricity: 0.003369808197 Time of Applicability(s): 503808 Orbital Inclination(rad): 0.9646785727 Rate of Right Ascen(r/s): -7.600316584e-09 SQRT(A) (m 1/2): 5153.537598 Right Ascen at Week(rad): -0.2779819614 Argument of Perigee(rad): 2.070814518 Mean Anom(rad): 2.353859814 Af0(s): 0.0006089688477 Af1(s/s): 0 week: 353 ******** Week 353 almanac for PRN-10 ******** ID: 10 Health: 0 Eccentricity: 0.01097583771 Time of Applicability(s): 503808 Orbital Inclination(rad): 0.992080503 Rate of Right Ascen(r/s): -7.851755628e-09 SQRT(A) (m 1/2): 5153.605469 Right Ascen at Week(rad): -1.287830426 Argument of Perigee(rad): -2.266663717 Mean Anom(rad): -2.51188343 Af0(s): -0.0004604950073 Af1(s/s): -3.637979e-12 week: 353 ******** Week 353 almanac for PRN-11 ******** ID: 11 Health: 0 Eccentricity: 0.00223493576 Time of Applicability(s): 503808 Orbital Inclination(rad): 0.9641932116 Rate of Right Ascen(r/s): -8.000333246e-09 SQRT(A) (m 1/2): 5153.729004 Right Ascen at Week(rad): -2.302355735 Argument of Perigee(rad): -2.249116565 Mean Anom(rad): 0.7999200483 Af0(s): -0.0003730687866 Af1(s/s): 1.455192e-11 week: 353 ******** Week 353 almanac for PRN-12 ******** ID: 12 Health: 0 Eccentricity: 0.009072780609 Time of Applicability(s): 503808 Orbital Inclination(rad): 0.9588242788 Rate of Right Ascen(r/s): -7.794610391e-09 SQRT(A) (m 1/2): 5153.503906 Right Ascen at Week(rad): 1.912445233 Argument of Perigee(rad): 1.534618948 Mean Anom(rad): -1.69143328 Af0(s): -0.0004793368652 Af1(s/s): 0 week: 353 ******** Week 353 almanac for PRN-13 ******** ID: 13 Health: 0 Eccentricity: 0.009897708893 Time of Applicability(s): 503808 Orbital Inclination(rad): 0.9762733103 Rate of Right Ascen(r/s): -7.463168014e-09 SQRT(A) (m 1/2): 5153.633301 Right Ascen at Week(rad): -0.1035732893 Argument of Perigee(rad): 1.0020164 Mean Anom(rad): 1.504352039 Af0(s): 0.0005449065308 Af1(s/s): 0 week: 353 ******** Week 353 almanac for PRN-14 ******** ID: 14 Health: 0 Eccentricity: 0.006505966186 Time of Applicability(s): 503808 Orbital Inclination(rad): 0.9421302536 Rate of Right Ascen(r/s): -8.034620388e-09 SQRT(A) (m 1/2): 5153.580566 Right Ascen at Week(rad): 1.858513599 Argument of Perigee(rad): -2.763251798 Mean Anom(rad): -1.887085864 Af0(s): 0.000576560852 Af1(s/s): 3.637979e-12 week: 353 ******** Week 353 almanac for PRN-15 ******** ID: 15 Health: 0 Eccentricity: 0.01659250259 Time of Applicability(s): 503808 Orbital Inclination(rad): 0.9424358513 Rate of Right Ascen(r/s): -7.886042771e-09 SQRT(A) (m 1/2): 5153.629883 Right Ascen at Week(rad): -0.420869126 Argument of Perigee(rad): 1.4940119 Mean Anom(rad): 0.7692497952 Af0(s): 0.0002984550293 Af1(s/s): 3.637979e-12 week: 353 ******** Week 353 almanac for PRN-16 ******** ID: 16 Health: 0 Eccentricity: 0.01504707336 Time of Applicability(s): 503808 Orbital Inclination(rad): 0.957979391 Rate of Right Ascen(r/s): -7.817468486e-09 SQRT(A) (m 1/2): 5153.564453 Right Ascen at Week(rad): 1.929504402 Argument of Perigee(rad): 0.9217138535 Mean Anom(rad): 2.776546797 Af0(s): 0.0001492275146 Af1(s/s): 7.275958e-12 week: 353 ******** Week 353 almanac for PRN-17 ******** ID: 17 Health: 0 Eccentricity: 0.01282405853 Time of Applicability(s): 503808 Orbital Inclination(rad): 0.9602264332 Rate of Right Ascen(r/s): -7.577458489e-09 SQRT(A) (m 1/2): 5153.522949 Right Ascen at Week(rad): 2.946998054 Argument of Perigee(rad): -1.134806855 Mean Anom(rad): 1.666762255 Af0(s): -2.713227539e-05 Af1(s/s): -1.091394e-11 week: 353 ******** Week 353 almanac for PRN-18 ******** ID: 18 Health: 0 Eccentricity: 0.005688667297 Time of Applicability(s): 503808 Orbital Inclination(rad): 0.972312524 Rate of Right Ascen(r/s): -7.920329913e-09 SQRT(A) (m 1/2): 5153.600586 Right Ascen at Week(rad): -2.326543646 Argument of Perigee(rad): -2.857245572 Mean Anom(rad): -0.3142080263 Af0(s): -0.000354980603 Af1(s/s): 1.091394e-11 week: 353 ******** Week 353 almanac for PRN-19 ******** ID: 19 Health: 0 Eccentricity: 0.01097297668 Time of Applicability(s): 503808 Orbital Inclination(rad): 0.9594294822 Rate of Right Ascen(r/s): -7.566029441e-09 SQRT(A) (m 1/2): 5153.665039 Right Ascen at Week(rad): 2.99089627 Argument of Perigee(rad): 2.915837946 Mean Anom(rad): -2.753074944 Af0(s): 0.0005418918335 Af1(s/s): 3.637979e-12 week: 353 ******** Week 353 almanac for PRN-21 ******** ID: 21 Health: 0 Eccentricity: 0.000554561615 Time of Applicability(s): 503808 Orbital Inclination(rad): 0.9619641458 Rate of Right Ascen(r/s): -8.148910863e-09 SQRT(A) (m 1/2): 5153.689453 Right Ascen at Week(rad): -1.277714617 Argument of Perigee(rad): -0.4810460389 Mean Anom(rad): -1.843553916 Af0(s): 0.0003014697266 Af1(s/s): 7.275958e-12 week: 353 ******** Week 353 almanac for PRN-22 ******** ID: 22 Health: 0 Eccentricity: 0.01222610474 Time of Applicability(s): 503808 Orbital Inclination(rad): 0.9574221245 Rate of Right Ascen(r/s): -7.851755628e-09 SQRT(A) (m 1/2): 5153.568359 Right Ascen at Week(rad): 1.932844256 Argument of Perigee(rad): -0.9971732746 Mean Anom(rad): 2.320005128 Af0(s): -4.59741333e-05 Af1(s/s): 3.637979e-12 week: 353 ******** Week 353 almanac for PRN-23 ******** ID: 23 Health: 0 Eccentricity: 0.006000518799 Time of Applicability(s): 503808 Orbital Inclination(rad): 0.9870770891 Rate of Right Ascen(r/s): -7.908900866e-09 SQRT(A) (m 1/2): 5153.652832 Right Ascen at Week(rad): -1.319720823 Argument of Perigee(rad): -2.748172272 Mean Anom(rad): -1.412571977 Af0(s): 0.000474061145 Af1(s/s): 3.637979e-12 week: 353 ******** Week 353 almanac for PRN-24 ******** ID: 24 Health: 0 Eccentricity: 0.01782369614 Time of Applicability(s): 503808 Orbital Inclination(rad): 0.9348977738 Rate of Right Ascen(r/s): -7.920329913e-09 SQRT(A) (m 1/2): 5153.59375 Right Ascen at Week(rad): 0.6867855945 Argument of Perigee(rad): 1.129746516 Mean Anom(rad): -0.09273318334 Af0(s): -0.0001266172852 Af1(s/s): 1.455192e-11 week: 353 ******** Week 353 almanac for PRN-25 ******** ID: 25 Health: 0 Eccentricity: 0.01293897629 Time of Applicability(s): 503808 Orbital Inclination(rad): 0.947109699 Rate of Right Ascen(r/s): -7.954617056e-09 SQRT(A) (m 1/2): 5153.678223 Right Ascen at Week(rad): 1.819091866 Argument of Perigee(rad): 1.150058653 Mean Anom(rad): -1.841050711 Af0(s): 0.000354980603 Af1(s/s): -3.637979e-12 week: 353 ******** Week 353 almanac for PRN-26 ******** ID: 26 Health: 0 Eccentricity: 0.0109705925 Time of Applicability(s): 503808 Orbital Inclination(rad): 0.9278570417 Rate of Right Ascen(r/s): -8.194627053e-09 SQRT(A) (m 1/2): 5153.623535 Right Ascen at Week(rad): 1.74537952 Argument of Perigee(rad): 0.7013703963 Mean Anom(rad): -2.671786321 Af0(s): -0.0002472051758 Af1(s/s): -7.275958e-12 week: 353 ******** Week 353 almanac for PRN-27 ******** ID: 27 Health: 0 Eccentricity: 0.01416730881 Time of Applicability(s): 503808 Orbital Inclination(rad): 0.9535751883 Rate of Right Ascen(r/s): -7.646032773e-09 SQRT(A) (m 1/2): 5153.619141 Right Ascen at Week(rad): 2.874673257 Argument of Perigee(rad): 0.8658872143 Mean Anom(rad): 1.868770972 Af0(s): -1.582716064e-05 Af1(s/s): -7.275958e-12 week: 353 ******** Week 353 almanac for PRN-28 ******** ID: 28 Health: 0 Eccentricity: 0.0004029273987 Time of Applicability(s): 503808 Orbital Inclination(rad): 0.9618083508 Rate of Right Ascen(r/s): -7.714607058e-09 SQRT(A) (m 1/2): 5153.708984 Right Ascen at Week(rad): 0.768226642 Argument of Perigee(rad): 0.3711754139 Mean Anom(rad): -1.074070054 Af0(s): -0.0004823515625 Af1(s/s): 3.637979e-12 week: 353 ******** Week 353 almanac for PRN-29 ******** ID: 29 Health: 0 Eccentricity: 0.00325012207 Time of Applicability(s): 503808 Orbital Inclination(rad): 0.9628689548 Rate of Right Ascen(r/s): -7.588887536e-09 SQRT(A) (m 1/2): 5153.741699 Right Ascen at Week(rad): 2.963579727 Argument of Perigee(rad): 2.752562993 Mean Anom(rad): 1.743269922 Af0(s): -0.000309760144 Af1(s/s): 7.275958e-12 week: 353 ******** Week 353 almanac for PRN-30 ******** ID: 30 Health: 0 Eccentricity: 0.007877826691 Time of Applicability(s): 503808 Orbital Inclination(rad): 0.93607822 Rate of Right Ascen(r/s): -7.977475151e-09 SQRT(A) (m 1/2): 5153.720703 Right Ascen at Week(rad): 0.7861262054 Argument of Perigee(rad): -2.348095777 Mean Anom(rad): -1.179540596 Af0(s): 7.084538574e-05 Af1(s/s): 1.091394e-11 week: 353 ******** Week 353 almanac for PRN-31 ******** ID: 31 Health: 0 Eccentricity: 0.01086902618 Time of Applicability(s): 503808 Orbital Inclination(rad): 0.9545818632 Rate of Right Ascen(r/s): -7.783181343e-09 SQRT(A) (m 1/2): 5153.704102 Right Ascen at Week(rad): 0.8185027125 Argument of Perigee(rad): 0.9312753924 Mean Anom(rad): -2.139115237 Af0(s): -0.0001364150513 Af1(s/s): 3.637979e-12 week: 353 ******** Week 353 almanac for PRN-32 ******** ID: 32 Health: 0 Eccentricity: 0.009189128876 Time of Applicability(s): 503808 Orbital Inclination(rad): 0.9677585185 Rate of Right Ascen(r/s): -7.554600394e-09 SQRT(A) (m 1/2): 5153.67334 Right Ascen at Week(rad): -0.2611411294 Argument of Perigee(rad): -2.027045507 Mean Anom(rad): 2.479367606 Af0(s): -0.0001266172852 Af1(s/s): 1.818989e-11 week: 353